Torna al catalogo

STARLINK-32714

AttivoComunicazioniVLEO
NORAD 62499·PAYLOAD·🇺🇸 United States

Lanciato Jan 6, 2025 da Cape Canaveral Space Force Station

Loading…

Prossimi Passaggi (prossime 24 ore)

TLE

AggiornatoSource: CelesTrak SupGP

Epoca: Sep 15, 2026, 02:10 UTC

1 62499C 25003N   26258.09076389  .00035847  00000+0  12983-2 0  2584
2 62499  43.0007 299.6898 0001387 261.3959 107.2869 15.27563159    19

Traccia STARLINK-32714 in tempo reale con AllMySat

Download on the App Store